TimePST,TemperatureF,Dew PointF,Humidity,Sea Level PressureIn,VisibilityMPH,Wind Direction,Wind SpeedMPH,Gust SpeedMPH,PrecipitationIn,Events,Conditions,WindDirDegrees,DateUTC
12:53 AM,42.1,34.0,73,29.69,10.0,East,26.5,36.8,N/A,,Clear,90,2012-11-29 08:53:00
1:53 AM,42.1,33.1,70,29.67,10.0,East,28.8,38.0,N/A,,Clear,80,2012-11-29 09:53:00
2:53 AM,42.1,33.1,70,29.66,10.0,East,25.3,34.5,N/A,,Scattered Clouds,90,2012-11-29 10:53:00
3:53 AM,42.1,34.0,73,29.62,10.0,East,26.5,38.0,N/A,,Overcast,90,2012-11-29 11:53:00
4:53 AM,42.1,34.0,73,29.60,10.0,East,31.1,40.3,N/A,,Overcast,90,2012-11-29 12:53:00
5:53 AM,42.1,34.0,73,29.59,10.0,East,29.9,42.6,0.00,Rain,Light Rain,80,2012-11-29 13:53:00
6:53 AM,42.1,35.1,76,29.59,10.0,East,27.6,41.4,0.00,,Overcast,90,2012-11-29 14:53:00
8:53 AM,43.0,37.0,80,29.68,6.0,East,18.4,27.6,0.05,Rain,Light Rain,90,2012-11-29 16:53:00
9:53 AM,43.0,37.0,80,29.69,5.0,East,19.6,28.8,0.06,Rain,Light Rain,90,2012-11-29 17:53:00
10:53 AM,42.1,36.0,79,29.68,10.0,East,23.0,34.5,0.02,,Overcast,90,2012-11-29 18:53:00
11:53 AM,42.1,36.0,79,29.67,10.0,East,21.9,33.4,0.00,,Overcast,90,2012-11-29 19:53:00
12:53 PM,44.1,36.0,73,29.64,10.0,East,26.5,35.7,N/A,,Overcast,90,2012-11-29 20:53:00
1:53 PM,44.1,36.0,73,29.62,10.0,East,25.3,34.5,N/A,,Overcast,90,2012-11-29 21:53:00
2:53 PM,44.1,36.0,73,29.61,10.0,East,26.5,36.8,N/A,,Overcast,90,2012-11-29 22:53:00
3:53 PM,43.0,37.0,80,29.60,9.0,East,23.0,32.2,0.00,Rain,Light Rain,90,2012-11-29 23:53:00
4:53 PM,42.1,37.0,82,29.60,6.0,East,24.2,36.8,0.00,Rain,Light Rain,90,2012-11-30 00:53:00
5:53 PM,42.1,37.9,85,29.57,10.0,East,18.4,31.1,0.00,Rain,Light Rain,90,2012-11-30 01:53:00
6:53 PM,43.0,37.0,80,29.55,10.0,East,23.0,29.9,0.00,,Overcast,90,2012-11-30 02:53:00
7:53 PM,44.1,37.0,76,29.53,10.0,East,27.6,33.4,N/A,,Overcast,90,2012-11-30 03:53:00
8:53 PM,44.1,37.9,79,29.53,10.0,East,17.3,26.5,0.00,Rain,Light Rain,80,2012-11-30 04:53:00
9:53 PM,43.0,37.9,82,29.52,10.0,East,23.0,29.9,0.00,Rain,Light Rain,90,2012-11-30 05:53:00
10:53 PM,43.0,37.9,82,29.49,10.0,East,23.0,33.4,0.00,,Overcast,90,2012-11-30 06:53:00
11:53 PM,44.1,37.0,76,29.49,10.0,East,24.2,33.4,N/A,,Overcast,90,2012-11-30 07:53:00